DW3973 Weather Reports


time (UTC)temp
F
wind
direction
speed
knots
gust
knots
rain 1hr
in
rain 24hr
in
rain mn
in
humidity
%
barometer
mb
20240723043203 80 225 0.0 0.0 0.00 0.00 0.00 46 1011.9
20240723042704 80 225 0.0 0.0 0.00 0.00 0.00 45 1011.6
20240723042203 80 225 0.0 1.7 0.00 0.00 0.00 45 1011.6
20240723041704 80 225 0.0 1.7 0.00 0.00 0.00 43 1011.6
20240723041203 80 221 0.0 4.3 0.00 0.00 0.00 43 1011.5
20240723040203 81 249 0.9 5.2 0.00 0.00 0.00 40 1011.6
20240723035704 81 253 2.6 5.2 0.00 0.00 0.00 39 1011.2
20240723035203 82 242 2.6 6.1 0.00 0.00 0.00 37 1011.2
20240723034704 82 281 0.0 7.0 0.00 0.00 0.00 34 1011.2
20240723034203 83 275 4.3 7.8 0.00 0.00 0.00 33 1010.9
20240723033703 83 273 0.9 7.8 0.00 0.00 0.00 32 1010.9
20240723032704 84 279 3.5 8.7 0.00 0.00 0.00 30 1010.8
20240723032204 84 263 1.7 8.7 0.00 0.00 0.00 30 1010.8
20240723031203 85 261 2.6 8.7 0.00 0.00 0.00 29 1010.8
20240723030704 85 256 0.0 8.7 0.00 0.00 0.00 29 1010.8
20240723030203 86 257 6.1 10.4 0.00 0.00 0.00 30 1010.9
20240723025703 86 284 7.8 10.4 0.00 0.00 0.00 29 1010.3
20240723025203 87 257 4.3 10.4 0.00 0.00 0.00 29 1010.4
20240723023704 88 308 1.7 12.2 0.00 0.00 0.00 28 1010.1
20240723023203 89 284 8.7 10.4 0.00 0.00 0.00 28 1010.2
20240723022704 90 337 7.0 10.4 0.00 0.00 0.00 28 1009.9
20240723022203 91 279 5.2 9.6 0.00 0.00 0.00 27 1010.0
20240723021704 91 275 7.0 9.6 0.00 0.00 0.00 28 1010.0
20240723021203 91 261 5.2 8.7 0.00 0.00 0.00 28 1009.8
20240723020703 92 313 0.9 7.8 0.00 0.00 0.00 28 1009.8
20240723020204 92 270 3.5 7.8 0.00 0.00 0.00 29 1009.8
20240723015703 92 265 7.0 7.8 0.00 0.00 0.00 29 1009.5
20240723015204 93 242 5.2 8.7 0.00 0.00 0.00 29 1009.5
20240723014703 93 292 7.0 9.6 0.00 0.00 0.00 29 1009.5
20240723014203 94 296 5.2 9.6 0.00 0.00 0.00 28 1009.5
20240723013703 94 284 7.8 11.3 0.00 0.00 0.00 28 1009.5
20240723013204 95 309 6.1 11.3 0.00 0.00 0.00 27 1009.5
20240723012704 95 333 4.3 9.6 0.00 0.00 0.00 26 1009.3
20240723011703 96 327 3.5 9.6 0.00 0.00 0.00 25 1009.4
20240723011203 96 275 6.1 8.7 0.00 0.00 0.00 24 1009.4
20240723010704 97 300 5.2 8.7 0.00 0.00 0.00 24 1009.4
20240723010203 97 238 6.1 8.7 0.00 0.00 0.00 25 1009.4
20240723005704 97 293 7.8 9.6 0.00 0.00 0.00 25 1009.2
20240723005203 97 297 4.3 9.6 0.00 0.00 0.00 26 1009.2
20240723004703 97 288 7.0 9.6 0.00 0.00 0.00 24 1009.2
20240723004203 97 317 5.2 8.7 0.00 0.00 0.00 25 1009.2
20240723003203 97 317 6.1 8.7 0.00 0.00 0.00 24 1009.2
20240723002703 98 348 6.1 10.4 0.00 0.00 0.00 23 1009.3
20240723002203 98 275 2.6 10.4 0.00 0.00 0.00 23 1009.3
20240723001203 99 261 8.7 10.4 0.00 0.00 0.00 23 1009.3
20240723000703 98 251 0.0 10.4 0.00 0.00 0.00 22 1009.2
20240723000204 99 277 7.8 10.4 0.00 0.00 0.00 22 1009.3
20240722235703 99 316 3.5 10.4 0.00 0.00 0.00 22 1009.4
20240722234703 98 327 1.7 8.7 0.00 0.00 0.00 23 1009.4
20240722234203 99 321 6.1 8.7 0.00 0.00 0.00 23 1009.4
20240722233703 98 290 1.7 9.6 0.00 0.00 0.00 24 1009.4
20240722232702 99 320 4.3 9.6 0.00 0.00 0.00 25 1009.5
20240722232203 98 295 7.0 11.3 0.00 0.00 0.00 25 1009.5
20240722231703 98 342 2.6 11.3 0.00 0.00 0.00 25 1009.5
20240722230702 98 325 6.1 12.2 0.00 0.00 0.00 26 1009.7
20240722230203 98 293 6.1 10.4 0.00 0.00 0.00 25 1009.6
20240722225703 98 30 3.5 9.6 0.00 0.00 0.00 25 1009.6
20240722225202 98 277 5.2 13.0 0.00 0.00 0.00 26 1009.7
20240722224203 98 316 5.2 12.2 0.00 0.00 0.00 26 1009.8
20240722223702 97 281 7.0 12.2 0.00 0.00 0.00 26 1009.7
20240722223202 98 282 9.6 12.2 0.00 0.00 0.00 27 1009.8
20240722222202 97 346 3.5 12.2 0.00 0.00 0.00 26 1010.1
20240722221702 98 290 7.0 11.3 0.00 0.00 0.00 26 1010.1
20240722221202 98 322 9.6 12.2 0.00 0.00 0.00 27 1010.3
20240722220703 98 340 6.1 12.2 0.00 0.00 0.00 27 1010.3
20240722215702 98 337 7.0 11.3 0.00 0.00 0.00 26 1010.3
20240722214203 98 265 6.1 12.2 0.00 0.00 0.00 26 1010.4
20240722213202 98 350 12.2 12.2 0.00 0.00 0.00 27 1010.4
20240722212703 98 348 5.2 10.4 0.00 0.00 0.00 27 1010.5
20240722211702 98 338 7.0 10.4 0.00 0.00 0.00 27 1010.5
20240722211203 98 322 7.0 12.2 0.00 0.00 0.00 28 1010.8
20240722210702 98 329 9.6 12.2 0.00 0.00 0.00 26 1010.7
20240722205202 98 300 7.8 11.3 0.00 0.00 0.00 27 1010.8
20240722204702 98 318 7.8 12.2 0.00 0.00 0.00 26 1010.8
20240722204202 98 305 7.8 12.2 0.00 0.00 0.00 27 1011.0
20240722203702 98 269 10.4 12.2 0.00 0.00 0.00 28 1011.1
20240722203202 98 338 4.3 12.2 0.00 0.00 0.00 28 1011.1
20240722202702 98 348 2.6 12.2 0.00 0.00 0.00 28 1011.3
20240722202202 98 348 7.8 9.6 0.00 0.00 0.00 27 1011.2
20240722201702 98 336 7.0 9.6 0.00 0.00 0.00 28 1011.3
20240722201202 98 309 5.2 12.2 0.00 0.00 0.00 28 1011.4
20240722200202 97 241 1.7 13.9 0.00 0.00 0.00 29 1011.3
20240722195702 97 286 3.5 11.3 0.00 0.00 0.00 29 1011.4
20240722195201 97 5 2.6 11.3 0.00 0.00 0.00 28 1011.3
20240722194702 97 275 10.4 10.4 0.00 0.00 0.00 28 1011.3
20240722193701 97 285 6.1 10.4 0.00 0.00 0.00 27 1011.3
20240722193202 97 324 4.3 10.4 0.00 0.00 0.00 25 1011.3
20240722192702 97 321 4.3 10.4 0.00 0.00 0.00 26 1011.3
20240722192201 95 267 8.7 10.4 0.00 0.00 0.00 27 1011.2
20240722191701 95 355 6.1 10.4 0.00 0.00 0.00 28 1011.2
20240722191201 96 355 6.1 9.6 0.00 0.00 0.00 25 1011.2
20240722190202 95 268 6.1 11.3 0.00 0.00 0.00 24 1011.2
20240722185701 95 272 7.0 11.3 0.00 0.00 0.00 26 1011.2
20240722184702 95 279 6.1 12.2 0.00 0.00 0.00 28 1011.2
20240722184201 94 302 10.4 13.0 0.00 0.00 0.00 30 1011.3
20240722183701 94 311 7.8 13.0 0.00 0.00 0.00 29 1011.2
20240722183202 94 321 7.0 11.3 0.00 0.00 0.00 31 1011.3
20240722182701 94 284 5.2 11.3 0.00 0.00 0.00 31 1011.4
20240722182202 93 270 8.7 10.4 0.00 0.00 0.00 33 1011.4
20240722181701 93 350 3.5 10.4 0.00 0.00 0.00 33 1011.4
20240722181201 93 331 5.2 11.3 0.00 0.00 0.00 33 1011.5
20240722180702 93 360 7.0 11.3 0.00 0.00 0.00 33 1011.5
20240722180201 93 313 1.7 9.6 0.00 0.00 0.00 32 1011.5
20240722175702 92 321 7.8 11.3 0.00 0.00 0.00 32 1011.7
20240722175201 92 288 7.8 11.3 0.00 0.00 0.00 31 1011.6
20240722174701 92 288 8.7 11.3 0.00 0.00 0.00 32 1011.7
20240722174201 93 253 7.0 9.6 0.00 0.00 0.00 31 1011.8
20240722172701 92 290 4.3 9.6 0.00 0.00 0.00 29 1011.6
20240722172202 92 289 7.0 9.6 0.00 0.00 0.00 29 1011.6
20240722171701 92 302 4.3 7.0 0.00 0.00 0.00 30 1011.6
20240722171201 91 315 2.6 7.8 0.00 0.00 0.00 31 1011.5
20240722170701 91 323 3.5 7.8 0.00 0.00 0.00 32 1011.5
20240722170202 91 277 3.5 7.0 0.00 0.00 0.00 30 1011.5
20240722165701 91 310 5.2 5.2 0.00 0.00 0.00 31 1011.7
20240722165201 89 290 0.0 6.1 0.00 0.00 0.00 33 1011.6
20240722164702 89 319 0.9 6.1 0.00 0.00 0.00 34 1011.6
20240722164202 89 360 2.6 6.1 0.00 0.00 0.00 33 1011.7
20240722163202 88 272 0.0 4.3 0.00 0.00 0.00 31 1011.6
20240722162702 87 344 2.6 4.3 0.00 0.00 0.00 33 1011.7
20240722162201 87 341 4.3 4.3 0.00 0.00 0.00 34 1011.7
20240722161701 86 5 3.5 3.5 0.00 0.00 0.00 36 1011.6
20240722160702 86 319 0.0 6.1 0.00 0.00 0.00 37 1011.9
20240722155201 84 277 0.0 2.6 0.00 0.00 0.00 38 1011.9
20240722153201 83 296 0.0 1.7 0.00 0.00 0.00 39 1011.7
20240722152701 83 306 0.0 1.7 0.00 0.00 0.00 38 1012.0
20240722151701 81 309 0.0 1.7 0.00 0.00 0.00 41 1011.9
20240722151201 81 250 0.0 0.0 0.00 0.00 0.00 44 1011.8
20240722150701 80 250 0.0 0.0 0.00 0.00 0.00 46 1011.7
20240722150201 79 250 0.0 0.9 0.00 0.00 0.00 49 1011.7
20240722145701 79 249 0.0 0.9 0.00 0.00 0.00 50 1011.9
20240722145201 78 249 0.0 0.9 0.00 0.00 0.00 51 1011.8
20240722144701 77 249 0.0 0.0 0.00 0.00 0.00 53 1011.8
20240722144201 75 248 0.0 0.9 0.00 0.00 0.00 56 1012.0
20240722143701 74 248 0.0 0.9 0.00 0.00 0.00 58 1011.9
20240722142701 74 249 0.0 0.9 0.00 0.00 0.00 59 1011.7
20240722142200 74 153 0.0 2.6 0.00 0.00 0.00 59 1011.7
20240722141701 75 153 0.0 2.6 0.00 0.00 0.00 60 1011.8
20240722141200 75 192 1.7 1.7 0.00 0.00 0.00 54 1011.7
20240722140701 74 192 0.0 2.6 0.00 0.00 0.00 54 1011.6
20240722140201 73 192 0.9 2.6 0.00 0.00 0.00 56 1011.6
20240722135700 72 190 0.9 4.3 0.00 0.00 0.00 59 1011.6
20240722135201 71 196 1.7 4.3 0.00 0.00 0.00 64 1011.6
20240722134200 71 119 0.0 0.9 0.00 0.00 0.00 68 1011.6
20240722133701 71 189 0.0 0.0 0.00 0.00 0.00 67 1011.6
20240722133200 70 189 0.0 0.0 0.00 0.00 0.00 67 1011.5
20240722132700 70 189 0.0 0.0 0.00 0.00 0.00 69 1011.8
20240722132200 70 189 0.0 0.0 0.00 0.00 0.00 70 1011.8
20240722131701 69 213 0.0 0.0 0.00 0.00 0.00 71 1011.8
20240722131201 69 217 0.0 0.0 0.00 0.00 0.00 71 1011.7
20240722130201 69 252 0.0 0.0 0.00 0.00 0.00 73 1011.7
20240722125700 69 252 0.0 0.0 0.00 0.00 0.00 73 1011.7
20240722125200 69 252 0.0 0.0 0.00 0.00 0.00 71 1011.7
20240722124200 69 252 0.0 0.0 0.00 0.00 0.00 71 1011.6
20240722123701 69 252 0.0 0.0 0.00 0.00 0.00 71 1011.6
20240722123201 69 252 0.0 1.7 0.00 0.00 0.00 71 1011.6
20240722122700 69 252 0.0 1.7 0.00 0.00 0.00 70 1011.6
20240722122200 68 244 0.0 3.5 0.00 0.00 0.00 69 1011.5
20240722121700 68 241 0.0 3.5 0.00 0.00 0.00 70 1011.5
20240722121200 68 226 2.6 3.5 0.00 0.00 0.00 73 1011.5
20240722120200 68 213 0.0 0.9 0.00 0.00 0.00 75 1011.5
20240722115700 68 213 0.0 0.0 0.00 0.00 0.00 72 1011.6
20240722115201 68 213 0.0 0.0 0.00 0.00 0.00 71 1011.6
20240722114700 69 213 0.0 0.0 0.00 0.00 0.00 71 1011.7
20240722113700 69 212 0.0 0.9 0.00 0.00 0.00 69 1011.7
20240722113200 69 212 0.0 0.9 0.00 0.00 0.00 68 1011.7
20240722112700 70 211 0.0 2.6 0.00 0.00 0.00 67 1011.4
20240722112200 69 211 0.0 2.6 0.00 0.00 0.00 69 1011.4
20240722111200 69 227 0.0 0.9 0.00 0.00 0.00 68 1011.2
20240722110700 69 227 0.0 1.7 0.00 0.00 0.00 68 1011.2
20240722110200 69 229 0.0 2.6 0.00 0.00 0.00 69 1011.2
20240722105701 69 231 0.0 2.6 0.00 0.00 0.00 68 1011.6
20240722105200 69 266 0.9 1.7 0.00 0.00 0.00 68 1011.6
20240722104700 69 266 0.0 1.7 0.00 0.00 0.00 67 1011.6
20240722103700 69 266 0.0 0.0 0.00 0.00 0.00 68 1011.7
20240722103200 70 267 0.0 0.0 0.00 0.00 0.00 68 1011.8
20240722102700 70 267 0.0 0.0 0.00 0.00 0.00 68 1011.9
20240722102200 70 267 0.0 0.0 0.00 0.00 0.00 69 1011.9
20240722101700 70 267 0.0 0.0 0.00 0.00 0.00 69 1011.9
20240722100159 69 267 0.0 1.7 0.00 0.00 0.00 69 1011.9
20240722095700 69 265 0.0 2.6 0.00 0.00 0.00 68 1011.9
20240722095200 69 265 0.0 2.6 0.00 0.00 0.00 68 1011.9
20240722094700 70 296 0.0 0.0 0.00 0.00 0.00 71 1012.0
20240722093700 70 296 0.0 2.6 0.00 0.00 0.00 71 1011.9
20240722092700 70 248 0.0 4.3 0.00 0.00 0.00 67 1012.1
20240722092159 70 229 3.5 4.3 0.00 0.00 0.00 68 1012.1
20240722091700 70 230 0.0 2.6 0.00 0.00 0.00 70 1012.1
20240722091200 70 234 0.0 1.7 0.00 0.00 0.00 71 1012.1
20240722090659 70 231 0.0 1.7 0.00 0.00 0.00 71 1012.1
20240722090200 70 228 0.0 1.7 0.00 0.00 0.00 70 1012.1
20240722085659 70 228 0.0 3.5 0.00 0.00 0.00 68 1012.4
20240722085200 70 229 0.0 3.5 0.00 0.00 0.00 67 1012.4
20240722084700 70 234 2.6 2.6 0.00 0.00 0.00 66 1012.4
20240722084159 71 253 0.9 0.9 0.00 0.00 0.00 64 1012.4
20240722083659 71 244 0.0 2.6 0.00 0.00 0.00 62 1012.4
20240722083159 71 241 0.0 2.6 0.00 0.00 0.00 59 1012.4
20240722082659 71 261 0.0 0.0 0.00 0.00 0.00 59 1012.4
20240722081659 71 261 0.0 0.0 0.00 0.00 0.00 60 1012.4
20240722081159 70 261 0.0 0.0 0.00 0.00 0.00 62 1012.4
20240722080700 71 261 0.0 0.0 0.00 0.00 0.00 62 1012.4
20240722080159 71 264 0.0 0.0 0.00 0.00 0.00 63 1012.4
20240722075659 72 264 0.0 0.0 0.00 0.00 0.00 61 1012.4
20240722075159 72 264 0.0 0.0 0.00 0.00 0.00 61 1012.4
20240722074659 72 264 0.0 0.0 0.00 0.00 0.00 62 1012.4
20240722073659 71 264 0.0 0.0 0.00 0.00 0.00 65 1012.4
20240722073159 71 264 0.0 0.0 0.00 0.00 0.00 66 1012.5
20240722072659 71 264 0.0 0.0 0.00 0.00 0.00 69 1012.8
20240722072159 71 264 0.0 0.0 0.00 0.00 0.00 69 1012.8
20240722071659 71 264 0.0 0.0 0.00 0.00 0.00 70 1012.8
20240722071159 71 264 0.0 0.0 0.00 0.00 0.00 69 1012.8
20240722070159 71 264 0.0 0.0 0.00 0.00 0.00 69 1012.8
20240722065659 72 264 0.0 0.0 0.00 0.00 0.00 69 1012.9
20240722064159 72 264 0.0 0.0 0.00 0.00 0.00 68 1012.9
20240722063659 72 264 0.0 0.0 0.00 0.00 0.00 68 1012.9
20240722062659 72 265 0.0 1.7 0.00 0.00 0.00 68 1012.8
20240722062159 72 265 0.0 1.7 0.00 0.00 0.00 67 1012.8
20240722061159 73 267 0.0 0.0 0.00 0.00 0.00 67 1012.8
20240722060659 73 267 0.0 1.7 0.00 0.00 0.00 67 1012.8
20240722060159 73 266 0.0 1.7 0.00 0.00 0.00 67 1012.8
20240722054659 74 273 0.9 2.6 0.00 0.00 0.00 65 1012.7
20240722054159 74 271 0.0 2.6 0.00 0.00 0.00 65 1012.7
20240722053159 75 273 0.0 0.0 0.00 0.00 0.00 63 1012.7
20240722052659 75 273 0.0 0.0 0.00 0.00 0.00 63 1012.7
20240722051658 76 276 0.0 0.0 0.00 0.00 0.00 62 1012.8
20240722050659 77 276 0.0 0.0 0.00 0.00 0.00 60 1012.8
20240722050159 77 276 0.0 0.0 0.00 0.00 0.00 59 1012.8
20240722045159 77 275 0.0 0.0 0.00 0.00 0.00 59 1012.6
20240722044658 77 276 0.0 0.0 0.00 0.00 0.00 58 1012.6
20240722044159 77 276 0.0 2.6 0.00 0.00 0.00 58 1012.5